Time,TemperatureF,DewpointF,PressureIn,WindDirection,WindDirectionDegrees,WindSpeedMPH,WindSpeedGustMPH,Humidity,HourlyPrecipIn,Conditions,Clouds,dailyrainin,SoftwareType,DateUTC
2013-02-01 00:00:00,30.0,14.9,29.36,West,270,5.8,9.1,53,0.00,,,0.00,WUHU216HW,2013-02-01 05:00:00,
2013-02-01 00:01:00,30.0,14.9,29.36,West,270,5.8,9.1,53,0.00,,,0.00,WUHU216HW,2013-02-01 05:01:00,
2013-02-01 00:10:00,30.0,14.9,29.36,West,270,5.8,5.8,53,0.00,,,0.00,WUHU216HW,2013-02-01 05:10:00,
2013-02-01 00:15:00,30.0,14.4,29.36,WSW,248,3.8,7.1,52,0.00,,,0.00,WUHU216HW,2013-02-01 05:15:00,
2013-02-01 00:20:00,29.8,14.7,29.36,West,270,5.1,7.1,53,0.00,,,0.00,WUHU216HW,2013-02-01 05:20:00,
2013-02-01 00:25:00,29.8,14.3,29.36,WNW,293,8.0,8.0,52,0.00,,,0.00,WUHU216HW,2013-02-01 05:25:00,
2013-02-01 00:30:00,29.6,14.1,29.36,WSW,248,5.5,8.0,52,0.00,,,0.00,WUHU216HW,2013-02-01 05:30:00,
2013-02-01 00:35:00,29.4,14.0,29.36,West,270,8.2,8.2,52,0.00,,,0.00,WUHU216HW,2013-02-01 05:35:00,
2013-02-01 00:40:00,29.4,13.5,29.36,West,270,0.0,8.2,51,0.00,,,0.00,WUHU216HW,2013-02-01 05:40:00,
2013-02-01 00:45:00,29.3,13.4,29.37,NW,315,7.1,8.2,51,0.00,,,0.00,WUHU216HW,2013-02-01 05:45:00,
2013-02-01 00:50:00,29.3,12.5,29.37,West,270,7.3,9.3,49,0.00,,,0.00,WUHU216HW,2013-02-01 05:50:00,
2013-02-01 00:55:00,29.3,12.5,29.37,SW,225,7.6,9.3,49,0.00,,,0.00,WUHU216HW,2013-02-01 05:55:00,
2013-02-01 01:00:00,29.3,12.5,29.37,NW,315,3.1,7.6,49,0.00,,,0.00,WUHU216HW,2013-02-01 06:00:00,
2013-02-01 01:10:00,29.3,12.5,29.37,NW,315,3.1,3.1,49,0.00,,,0.00,WUHU216HW,2013-02-01 06:10:00,
2013-02-01 01:15:00,29.1,12.3,29.38,WSW,248,7.6,7.6,49,0.00,,,0.00,WUHU216HW,2013-02-01 06:15:00,
2013-02-01 01:20:00,29.1,12.3,29.38,WNW,293,3.5,8.2,49,0.00,,,0.00,WUHU216HW,2013-02-01 06:20:00,
2013-02-01 01:25:00,29.1,12.3,29.38,South,180,4.0,8.2,49,0.00,,,0.00,WUHU216HW,2013-02-01 06:25:00,
2013-02-01 01:30:00,29.1,12.3,29.38,WNW,293,4.9,7.3,49,0.00,,,0.00,WUHU216HW,2013-02-01 06:30:00,
2013-02-01 01:35:00,29.1,12.3,29.38,West,270,7.3,7.3,49,0.00,,,0.00,WUHU216HW,2013-02-01 06:35:00,
2013-02-01 01:40:00,28.9,12.1,29.38,WNW,293,12.0,12.0,49,0.00,,,0.00,WUHU216HW,2013-02-01 06:40:00,
2013-02-01 01:45:00,28.9,12.1,29.38,WSW,248,3.5,12.0,49,0.00,,,0.00,WUHU216HW,2013-02-01 06:45:00,
2013-02-01 01:50:00,28.7,12.0,29.39,WNW,293,4.4,12.0,49,0.00,,,0.00,WUHU216HW,2013-02-01 06:50:00,
2013-02-01 01:55:00,28.7,11.5,29.39,West,270,3.8,8.9,48,0.00,,,0.00,WUHU216HW,2013-02-01 06:55:00,
2013-02-01 02:00:00,28.7,12.0,29.39,West,270,1.7,8.9,49,0.00,,,0.00,WUHU216HW,2013-02-01 07:00:00,
2013-02-01 02:05:00,28.7,12.0,29.39,West,270,3.1,3.8,49,0.00,,,0.00,WUHU216HW,2013-02-01 07:05:00,
2013-02-01 02:10:00,28.5,11.8,29.40,WNW,293,1.1,3.1,49,0.00,,,0.00,WUHU216HW,2013-02-01 07:10:00,
2013-02-01 02:15:00,28.5,11.8,29.40,West,270,0.6,5.1,49,0.00,,,0.00,WUHU216HW,2013-02-01 07:15:00,
2013-02-01 02:20:00,28.5,11.8,29.40,West,270,0.0,5.1,49,0.00,,,0.00,WUHU216HW,2013-02-01 07:20:00,
2013-02-01 02:25:00,28.5,11.8,29.41,West,270,3.3,3.3,49,0.00,,,0.00,WUHU216HW,2013-02-01 07:25:00,
2013-02-01 02:31:00,28.5,11.8,29.40,SW,225,6.9,6.9,49,0.00,,,0.00,WUHU216HW,2013-02-01 07:31:00,
2013-02-01 02:36:00,28.5,11.3,29.41,SW,225,7.8,7.8,48,0.00,,,0.00,WUHU216HW,2013-02-01 07:36:00,
2013-02-01 02:41:00,28.5,11.3,29.41,South,180,6.7,10.5,48,0.00,,,0.00,WUHU216HW,2013-02-01 07:41:00,
2013-02-01 02:46:00,28.5,10.8,29.41,WSW,248,13.4,13.4,47,0.00,,,0.00,WUHU216HW,2013-02-01 07:46:00,
2013-02-01 02:51:00,28.5,10.8,29.41,SW,225,8.0,13.4,47,0.00,,,0.00,WUHU216HW,2013-02-01 07:51:00,
2013-02-01 02:56:00,28.2,10.5,29.40,West,270,8.2,8.7,47,0.00,,,0.00,WUHU216HW,2013-02-01 07:56:00,
2013-02-01 03:01:00,28.2,10.5,29.40,WSW,248,8.2,8.7,47,0.00,,,0.00,WUHU216HW,2013-02-01 08:01:00,
2013-02-01 03:06:00,28.2,10.5,29.40,WSW,248,7.8,8.2,47,0.00,,,0.00,WUHU216HW,2013-02-01 08:06:00,
2013-02-01 03:11:00,28.0,10.8,29.40,WNW,293,8.9,8.9,48,0.00,,,0.00,WUHU216HW,2013-02-01 08:11:00,
2013-02-01 03:16:00,28.0,10.8,29.40,West,270,7.6,8.9,48,0.00,,,0.00,WUHU216HW,2013-02-01 08:16:00,
2013-02-01 03:21:00,27.6,10.4,29.41,WNW,293,5.5,8.9,48,0.00,,,0.00,WUHU216HW,2013-02-01 08:21:00,
2013-02-01 03:26:00,27.6,10.4,29.41,West,270,13.1,13.1,48,0.00,,,0.00,WUHU216HW,2013-02-01 08:26:00,
2013-02-01 03:31:00,27.6,10.4,29.41,WSW,248,6.4,13.1,48,0.00,,,0.00,WUHU216HW,2013-02-01 08:31:00,
2013-02-01 03:36:00,27.6,10.4,29.42,West,270,6.4,13.1,48,0.00,,,0.00,WUHU216HW,2013-02-01 08:36:00,
2013-02-01 03:41:00,27.6,10.4,29.41,SW,225,6.0,9.1,48,0.00,,,0.00,WUHU216HW,2013-02-01 08:41:00,
2013-02-01 03:46:00,27.6,9.9,29.41,West,270,6.9,8.0,47,0.00,,,0.00,WUHU216HW,2013-02-01 08:46:00,
2013-02-01 03:51:00,27.5,10.3,29.42,WSW,248,4.6,6.9,48,0.00,,,0.00,WUHU216HW,2013-02-01 08:51:00,
2013-02-01 03:56:00,27.5,9.8,29.42,West,270,0.0,6.2,47,0.00,,,0.00,WUHU216HW,2013-02-01 08:56:00,
2013-02-01 04:01:00,27.5,9.8,29.42,West,270,9.8,9.8,47,0.00,,,0.00,WUHU216HW,2013-02-01 09:01:00,
2013-02-01 04:06:00,27.3,9.6,29.42,West,270,2.2,11.6,47,0.00,,,0.00,WUHU216HW,2013-02-01 09:06:00,
2013-02-01 04:11:00,27.3,9.6,29.42,WSW,248,6.4,11.6,47,0.00,,,0.00,WUHU216HW,2013-02-01 09:11:00,
2013-02-01 04:16:00,27.3,9.6,29.42,WNW,293,11.1,11.1,47,0.00,,,0.00,WUHU216HW,2013-02-01 09:16:00,
2013-02-01 04:21:00,27.3,9.6,29.42,WSW,248,4.9,11.1,47,0.00,,,0.00,WUHU216HW,2013-02-01 09:21:00,
2013-02-01 04:26:00,27.3,9.1,29.42,SW,225,4.4,8.7,46,0.00,,,0.00,WUHU216HW,2013-02-01 09:26:00,
2013-02-01 04:31:00,27.3,9.6,29.42,West,270,6.7,8.7,47,0.00,,,0.00,WUHU216HW,2013-02-01 09:31:00,
2013-02-01 04:36:00,27.1,9.4,29.42,West,270,6.7,10.9,47,0.00,,,0.00,WUHU216HW,2013-02-01 09:36:00,
2013-02-01 04:41:00,27.1,9.4,29.43,West,270,8.7,10.9,47,0.00,,,0.00,WUHU216HW,2013-02-01 09:41:00,
2013-02-01 04:46:00,27.1,10.4,29.43,WSW,248,11.1,11.1,49,0.00,,,0.00,WUHU216HW,2013-02-01 09:46:00,
2013-02-01 04:51:00,26.9,10.7,29.43,WSW,248,5.5,11.1,50,0.00,,,0.00,WUHU216HW,2013-02-01 09:51:00,
2013-02-01 04:56:00,26.7,10.9,29.43,West,270,3.8,5.5,51,0.00,,,0.00,WUHU216HW,2013-02-01 09:56:00,
2013-02-01 05:01:00,26.7,11.4,29.43,WNW,293,0.0,7.3,52,0.00,,,0.00,WUHU216HW,2013-02-01 10:01:00,
2013-02-01 05:06:00,26.4,11.4,29.44,West,270,0.0,7.3,53,0.00,,,0.00,WUHU216HW,2013-02-01 10:06:00,
2013-02-01 05:11:00,26.4,11.4,29.43,WSW,248,8.0,8.0,53,0.00,,,0.00,WUHU216HW,2013-02-01 10:11:00,
2013-02-01 05:16:00,26.4,11.4,29.43,WNW,293,10.5,10.5,53,0.00,,,0.00,WUHU216HW,2013-02-01 10:16:00,
2013-02-01 05:21:00,26.4,11.4,29.43,West,270,7.3,10.5,53,0.00,,,0.00,WUHU216HW,2013-02-01 10:21:00,
2013-02-01 05:26:00,26.2,11.3,29.43,West,270,2.0,10.5,53,0.00,,,0.00,WUHU216HW,2013-02-01 10:26:00,
2013-02-01 05:31:00,26.2,11.3,29.44,WSW,248,2.2,7.1,53,0.00,,,0.00,WUHU216HW,2013-02-01 10:31:00,
2013-02-01 05:36:00,26.2,11.3,29.44,West,270,0.0,5.8,53,0.00,,,0.00,WUHU216HW,2013-02-01 10:36:00,
2013-02-01 05:41:00,26.0,11.5,29.44,West,270,5.1,7.1,54,0.00,,,0.00,WUHU216HW,2013-02-01 10:41:00,
2013-02-01 05:46:00,25.8,10.9,29.44,NW,315,0.0,7.1,53,0.00,,,0.00,WUHU216HW,2013-02-01 10:46:00,
2013-02-01 05:51:00,25.8,10.9,29.44,WSW,248,1.1,8.0,53,0.00,,,0.00,WUHU216HW,2013-02-01 10:51:00,
2013-02-01 05:56:00,25.8,10.9,29.44,West,270,7.3,8.0,53,0.00,,,0.00,WUHU216HW,2013-02-01 10:56:00,
2013-02-01 06:01:00,25.8,11.4,29.45,WSW,248,6.7,7.3,54,0.00,,,0.00,WUHU216HW,2013-02-01 11:01:00,
2013-02-01 06:06:00,25.8,11.4,29.45,SW,225,4.9,7.3,54,0.00,,,0.00,WUHU216HW,2013-02-01 11:06:00,
2013-02-01 06:11:00,25.7,11.2,29.45,West,270,3.5,6.7,54,0.00,,,0.00,WUHU216HW,2013-02-01 11:11:00,
2013-02-01 06:16:00,25.7,11.2,29.45,West,270,8.9,8.9,54,0.00,,,0.00,WUHU216HW,2013-02-01 11:16:00,
2013-02-01 06:21:00,25.7,11.2,29.45,West,270,5.3,8.9,54,0.00,,,0.00,WUHU216HW,2013-02-01 11:21:00,
2013-02-01 06:27:00,25.5,11.0,29.46,West,270,4.9,8.9,54,0.00,,,0.00,WUHU216HW,2013-02-01 11:27:00,
2013-02-01 06:32:00,25.5,11.0,29.46,West,270,8.2,8.2,54,0.00,,,0.00,WUHU216HW,2013-02-01 11:32:00,
2013-02-01 06:37:00,25.5,10.6,29.46,West,270,0.8,12.7,53,0.00,,,0.00,WUHU216HW,2013-02-01 11:37:00,
2013-02-01 06:42:00,25.5,11.0,29.47,West,270,6.7,12.7,54,0.00,,,0.00,WUHU216HW,2013-02-01 11:42:00,
2013-02-01 06:47:00,25.5,11.0,29.47,WNW,293,4.6,7.1,54,0.00,,,0.00,WUHU216HW,2013-02-01 11:47:00,
2013-02-01 06:52:00,25.5,11.0,29.47,West,270,6.7,6.7,54,0.00,,,0.00,WUHU216HW,2013-02-01 11:52:00,
2013-02-01 06:57:00,25.7,11.2,29.48,WNW,293,4.0,6.7,54,0.00,,,0.00,WUHU216HW,2013-02-01 11:57:00,
2013-02-01 07:02:00,25.8,11.4,29.48,WNW,293,7.6,7.6,54,0.00,,,0.00,WUHU216HW,2013-02-01 12:02:00,
2013-02-01 07:07:00,25.8,11.4,29.48,NW,315,12.0,12.0,54,0.00,,,0.00,WUHU216HW,2013-02-01 12:07:00,
2013-02-01 07:12:00,26.0,11.5,29.49,West,270,11.1,12.0,54,0.00,,,0.00,WUHU216HW,2013-02-01 12:12:00,
2013-02-01 07:17:00,26.0,11.5,29.49,West,270,7.8,12.0,54,0.00,,,0.00,WUHU216HW,2013-02-01 12:17:00,
2013-02-01 07:22:00,25.8,11.8,29.49,West,270,8.2,11.1,55,0.00,,,0.00,WUHU216HW,2013-02-01 12:22:00,
2013-02-01 07:27:00,25.8,11.8,29.49,WNW,293,2.6,8.2,55,0.00,,,0.00,WUHU216HW,2013-02-01 12:27:00,
2013-02-01 07:32:00,25.7,12.0,29.50,WSW,248,8.0,8.2,56,0.00,,,0.00,WUHU216HW,2013-02-01 12:32:00,
2013-02-01 07:37:00,25.8,12.2,29.50,West,270,10.5,10.5,56,0.00,,,0.00,WUHU216HW,2013-02-01 12:37:00,
2013-02-01 07:42:00,25.8,12.2,29.50,West,270,6.9,10.5,56,0.00,,,0.00,WUHU216HW,2013-02-01 12:42:00,
2013-02-01 07:47:00,25.8,12.2,29.50,WSW,248,0.0,10.5,56,0.00,,,0.00,WUHU216HW,2013-02-01 12:47:00,
2013-02-01 07:52:00,25.8,12.6,29.50,WSW,248,4.4,6.9,57,0.00,,,0.00,WUHU216HW,2013-02-01 12:52:00,
2013-02-01 07:57:00,25.8,12.6,29.51,West,270,8.5,8.5,57,0.00,,,0.00,WUHU216HW,2013-02-01 12:57:00,
2013-02-01 08:02:00,25.7,12.9,29.51,West,270,2.4,8.5,58,0.00,,,0.00,WUHU216HW,2013-02-01 13:02:00,
2013-02-01 08:07:00,25.5,12.7,29.52,WNW,293,5.8,6.0,58,0.00,,,0.00,WUHU216HW,2013-02-01 13:07:00,
2013-02-01 08:12:00,25.7,12.9,29.52,West,270,0.0,6.0,58,0.00,,,0.00,WUHU216HW,2013-02-01 13:12:00,
2013-02-01 08:17:00,25.8,12.6,29.52,West,270,6.0,7.1,57,0.00,,,0.00,WUHU216HW,2013-02-01 13:17:00,
2013-02-01 08:22:00,26.2,12.5,29.52,West,270,12.5,12.5,56,0.00,,,0.00,WUHU216HW,2013-02-01 13:22:00,
2013-02-01 08:27:00,26.4,12.3,29.53,WNW,293,6.0,12.5,55,0.00,,,0.00,WUHU216HW,2013-02-01 13:27:00,
2013-02-01 08:32:00,26.6,12.4,29.53,SW,225,5.3,12.5,55,0.00,,,0.00,WUHU216HW,2013-02-01 13:32:00,
2013-02-01 08:37:00,26.9,12.4,29.54,West,270,8.2,8.2,54,0.00,,,0.00,WUHU216HW,2013-02-01 13:37:00,
2013-02-01 08:42:00,26.9,12.4,29.54,West,270,3.1,8.2,54,0.00,,,0.00,WUHU216HW,2013-02-01 13:42:00,
2013-02-01 08:47:00,27.1,12.1,29.54,WNW,293,7.1,8.2,53,0.00,,,0.00,WUHU216HW,2013-02-01 13:47:00,
2013-02-01 08:52:00,27.5,12.5,29.54,West,270,6.4,7.1,53,0.00,,,0.00,WUHU216HW,2013-02-01 13:52:00,
2013-02-01 08:57:00,27.6,12.7,29.54,West,270,6.9,8.0,53,0.00,,,0.00,WUHU216HW,2013-02-01 13:57:00,
2013-02-01 09:03:00,28.2,13.2,29.54,WNW,293,7.6,8.0,53,0.00,,,0.00,WUHU216HW,2013-02-01 14:03:00,
2013-02-01 09:08:00,28.5,13.1,29.54,West,270,11.6,11.6,52,0.00,,,0.00,WUHU216HW,2013-02-01 14:08:00,
2013-02-01 09:13:00,28.7,13.3,29.55,WNW,293,4.2,11.6,52,0.00,,,0.00,WUHU216HW,2013-02-01 14:13:00,
2013-02-01 09:18:00,28.9,13.5,29.55,WSW,248,7.3,11.6,52,0.00,,,0.00,WUHU216HW,2013-02-01 14:18:00,
2013-02-01 09:23:00,28.9,13.1,29.55,SW,225,0.0,8.5,51,0.00,,,0.00,WUHU216HW,2013-02-01 14:23:00,
2013-02-01 09:28:00,28.9,13.1,29.55,West,270,6.9,7.8,51,0.00,,,0.00,WUHU216HW,2013-02-01 14:28:00,
2013-02-01 09:33:00,29.6,13.7,29.55,SW,225,6.2,7.8,51,0.00,,,0.00,WUHU216HW,2013-02-01 14:33:00,
2013-02-01 09:38:00,30.0,13.6,29.55,West,270,8.9,13.6,50,0.00,,,0.00,WUHU216HW,2013-02-01 14:38:00,
2013-02-01 09:43:00,30.2,13.8,29.55,WNW,293,7.6,13.6,50,0.00,,,0.00,WUHU216HW,2013-02-01 14:43:00,
2013-02-01 09:48:00,30.5,12.1,29.55,WSW,248,8.9,8.9,46,0.00,,,0.00,WUHU216HW,2013-02-01 14:48:00,
2013-02-01 09:53:00,30.2,11.3,29.54,WSW,248,7.6,8.9,45,0.00,,,0.00,WUHU216HW,2013-02-01 14:53:00,
2013-02-01 09:58:00,30.0,11.1,29.55,WNW,293,17.8,17.8,45,0.00,,,0.00,WUHU216HW,2013-02-01 14:58:00,
2013-02-01 10:03:00,29.6,10.3,29.54,SW,225,6.7,17.8,44,0.00,,,0.00,WUHU216HW,2013-02-01 15:03:00,
2013-02-01 10:09:00,29.3,9.9,29.54,West,270,8.5,17.8,44,0.00,,,0.00,WUHU216HW,2013-02-01 15:09:00,
2013-02-01 10:14:00,29.4,9.1,29.53,WSW,248,6.7,8.7,43,0.00,,,0.00,WUHU216HW,2013-02-01 15:14:00,
2013-02-01 10:19:00,29.8,9.9,29.52,WSW,248,12.9,12.9,43,0.00,,,0.00,WUHU216HW,2013-02-01 15:19:00,
2013-02-01 10:24:00,30.0,10.1,29.53,WSW,248,8.2,12.9,43,0.00,,,0.00,WUHU216HW,2013-02-01 15:24:00,
2013-02-01 10:29:00,30.0,10.1,29.53,WSW,248,3.8,12.3,43,0.00,,,0.00,WUHU216HW,2013-02-01 15:29:00,
2013-02-01 10:34:00,30.3,10.4,29.54,WNW,293,0.0,12.3,43,0.00,,,0.00,WUHU216HW,2013-02-01 15:34:00,
2013-02-01 10:39:00,30.5,10.1,29.54,NNW,338,0.0,6.9,42,0.00,,,0.00,WUHU216HW,2013-02-01 15:39:00,
2013-02-01 10:44:00,30.5,10.1,29.54,NW,315,4.2,11.6,42,0.00,,,0.00,WUHU216HW,2013-02-01 15:44:00,
2013-02-01 10:49:00,30.3,9.9,29.54,SW,225,3.5,11.6,42,0.00,,,0.00,WUHU216HW,2013-02-01 15:49:00,
2013-02-01 10:54:00,30.3,9.9,29.54,WSW,248,6.2,6.2,42,0.00,,,0.00,WUHU216HW,2013-02-01 15:54:00,
2013-02-01 10:59:00,30.5,10.1,29.55,NW,315,6.4,8.5,42,0.00,,,0.00,WUHU216HW,2013-02-01 15:59:00,
2013-02-01 11:05:00,30.3,9.9,29.55,West,270,7.6,8.5,42,0.00,,,0.00,WUHU216HW,2013-02-01 16:05:00,
2013-02-01 11:10:00,30.3,9.9,29.55,West,270,6.4,10.0,42,0.00,,,0.00,WUHU216HW,2013-02-01 16:10:00,
2013-02-01 11:15:00,30.7,10.2,29.55,NW,315,8.0,10.0,42,0.00,,,0.00,WUHU216HW,2013-02-01 16:15:00,
2013-02-01 11:20:00,30.9,10.4,29.54,West,270,6.7,8.0,42,0.00,,,0.00,WUHU216HW,2013-02-01 16:20:00,
2013-02-01 11:25:00,31.1,10.5,29.54,WSW,248,8.7,8.7,42,0.00,,,0.00,WUHU216HW,2013-02-01 16:25:00,
2013-02-01 11:30:00,31.6,10.9,29.54,SW,225,6.4,8.7,42,0.00,,,0.00,WUHU216HW,2013-02-01 16:30:00,
2013-02-01 11:35:00,31.6,11.0,29.54,West,270,7.3,7.3,42,0.00,,,0.00,WUHU216HW,2013-02-01 16:35:00,
2013-02-01 11:40:00,32.0,11.4,29.54,NW,315,2.9,7.3,42,0.00,,,0.00,WUHU216HW,2013-02-01 16:40:00,
2013-02-01 11:45:00,32.3,11.2,29.54,NW,315,7.6,7.6,41,0.00,,,0.00,WUHU216HW,2013-02-01 16:45:00,
2013-02-01 11:50:00,32.5,10.8,29.54,South,180,2.2,7.6,40,0.00,,,0.00,WUHU216HW,2013-02-01 16:50:00,
2013-02-01 11:55:00,32.7,11.0,29.54,NNW,338,6.4,7.6,40,0.00,,,0.00,WUHU216HW,2013-02-01 16:55:00,
2013-02-01 12:00:00,32.1,10.2,29.54,WNW,293,6.0,7.3,39,0.00,,,0.00,WUHU216HW,2013-02-01 17:00:00,
2013-02-01 12:05:00,31.8,10.2,29.54,NW,315,0.0,7.3,40,0.00,,,0.00,WUHU216HW,2013-02-01 17:05:00,
2013-02-01 12:10:00,31.6,10.0,29.54,NNW,338,0.0,6.7,40,0.00,,,0.00,WUHU216HW,2013-02-01 17:10:00,
2013-02-01 12:15:00,31.2,9.7,29.53,WNW,293,7.6,8.0,40,0.00,,,0.00,WUHU216HW,2013-02-01 17:15:00,
2013-02-01 12:20:00,31.2,9.7,29.53,NNW,338,5.1,8.0,40,0.00,,,0.00,WUHU216HW,2013-02-01 17:20:00,
2013-02-01 12:25:00,31.2,9.1,29.53,NW,315,10.5,10.5,39,0.00,,,0.00,WUHU216HW,2013-02-01 17:25:00,
2013-02-01 12:30:00,31.2,9.5,29.52,West,270,4.2,10.5,40,0.00,,,0.00,WUHU216HW,2013-02-01 17:30:00,
2013-02-01 12:35:00,31.1,9.5,29.52,West,270,4.0,10.5,40,0.00,,,0.00,WUHU216HW,2013-02-01 17:35:00,
2013-02-01 12:40:00,31.2,9.7,29.52,West,270,8.0,10.5,40,0.00,,,0.00,WUHU216HW,2013-02-01 17:40:00,
2013-02-01 12:45:00,31.1,9.5,29.51,NW,315,2.4,8.2,40,0.00,,,0.00,WUHU216HW,2013-02-01 17:45:00,
2013-02-01 12:50:00,31.2,9.7,29.51,WSW,248,6.0,10.0,40,0.00,,,0.00,WUHU216HW,2013-02-01 17:50:00,
2013-02-01 12:55:00,31.4,9.9,29.51,NW,315,5.5,10.0,40,0.00,,,0.00,WUHU216HW,2013-02-01 17:55:00,
2013-02-01 13:01:00,31.8,10.2,29.51,NW,315,2.0,8.0,40,0.00,,,0.00,WUHU216HW,2013-02-01 18:01:00,
2013-02-01 13:06:00,31.8,9.6,29.51,WNW,293,0.0,8.0,39,0.00,,,0.00,WUHU216HW,2013-02-01 18:06:00,
2013-02-01 13:10:00,32.1,10.5,29.51,SW,225,2.2,6.2,40,0.00,,,0.00,WUHU216HW,2013-02-01 18:10:00,
2013-02-01 13:16:00,32.3,10.0,29.51,WSW,248,0.0,6.2,39,0.00,,,0.00,WUHU216HW,2013-02-01 18:16:00,
2013-02-01 13:21:00,32.9,11.2,29.52,West,270,2.9,5.1,40,0.00,,,0.00,WUHU216HW,2013-02-01 18:21:00,
2013-02-01 13:26:00,33.6,11.8,29.52,WNW,293,4.2,4.6,40,0.00,,,0.00,WUHU216HW,2013-02-01 18:26:00,
2013-02-01 13:31:00,33.9,11.5,29.52,SW,225,3.3,4.6,39,0.00,,,0.00,WUHU216HW,2013-02-01 18:31:00,
2013-02-01 13:36:00,33.9,12.1,29.52,West,270,3.8,4.2,40,0.00,,,0.00,WUHU216HW,2013-02-01 18:36:00,
2013-02-01 13:41:00,33.8,11.3,29.52,NNW,338,5.5,8.0,39,0.00,,,0.00,WUHU216HW,2013-02-01 18:41:00,
2013-02-01 13:46:00,33.4,10.4,29.52,NNE,23,6.9,8.0,39,0.00,,,0.00,WUHU216HW,2013-02-01 18:46:00,
2013-02-01 13:51:00,32.7,9.7,29.52,WNW,293,0.0,6.9,38,0.00,,,0.00,WUHU216HW,2013-02-01 18:51:00,
2013-02-01 13:56:00,32.3,9.4,29.52,NNE,23,0.0,6.9,38,0.00,,,0.00,WUHU216HW,2013-02-01 18:56:00,
2013-02-01 14:01:00,31.2,8.4,29.53,WNW,293,3.3,10.2,38,0.00,,,0.00,WUHU216HW,2013-02-01 19:01:00,
2013-02-01 14:06:00,30.7,8.6,29.53,SW,225,0.0,10.2,39,0.00,,,0.00,WUHU216HW,2013-02-01 19:06:00,
2013-02-01 14:11:00,30.7,8.6,29.53,West,270,4.2,4.2,39,0.00,,,0.00,WUHU216HW,2013-02-01 19:11:00,
2013-02-01 14:16:00,30.7,8.0,29.53,SSW,203,0.0,4.2,38,0.00,,,0.00,WUHU216HW,2013-02-01 19:16:00,
2013-02-01 14:21:00,30.7,8.0,29.53,WSW,248,4.0,6.0,38,0.00,,,0.00,WUHU216HW,2013-02-01 19:21:00,
2013-02-01 14:26:00,30.5,7.8,29.54,NNW,338,0.0,6.0,38,0.00,,,0.00,WUHU216HW,2013-02-01 19:26:00,
2013-02-01 14:31:00,30.5,8.4,29.54,WSW,248,9.1,9.1,39,0.00,,,0.00,WUHU216HW,2013-02-01 19:31:00,
2013-02-01 14:36:00,30.5,8.4,29.54,West,270,11.6,11.6,39,0.00,,,0.00,WUHU216HW,2013-02-01 19:36:00,
2013-02-01 14:41:00,30.7,8.6,29.54,West,270,2.4,11.6,39,0.00,,,0.00,WUHU216HW,2013-02-01 19:41:00,
2013-02-01 14:46:00,30.9,8.7,29.55,NW,315,1.1,11.6,39,0.00,,,0.00,WUHU216HW,2013-02-01 19:46:00,
2013-02-01 14:51:00,31.1,8.9,29.55,SW,225,11.4,11.4,39,0.00,,,0.00,WUHU216HW,2013-02-01 19:51:00,
2013-02-01 14:56:00,30.7,8.6,29.56,SSW,203,6.4,11.4,39,0.00,,,0.00,WUHU216HW,2013-02-01 19:56:00,
2013-02-01 15:01:00,30.5,8.4,29.56,SW,225,2.0,6.4,39,0.00,,,0.00,WUHU216HW,2013-02-01 20:01:00,
2013-02-01 15:06:00,30.0,7.9,29.56,West,270,6.9,6.9,39,0.00,,,0.00,WUHU216HW,2013-02-01 20:06:00,
2013-02-01 15:11:00,29.4,8.1,29.56,NW,315,5.8,7.6,40,0.00,,,0.00,WUHU216HW,2013-02-01 20:11:00,
2013-02-01 15:16:00,29.4,8.1,29.56,WSW,248,7.1,7.6,40,0.00,,,0.00,WUHU216HW,2013-02-01 20:16:00,
2013-02-01 15:21:00,29.3,7.9,29.57,West,270,5.8,7.1,40,0.00,,,0.00,WUHU216HW,2013-02-01 20:21:00,
2013-02-01 15:26:00,29.1,7.8,29.57,West,270,0.0,5.8,40,0.00,,,0.00,WUHU216HW,2013-02-01 20:26:00,
2013-02-01 15:32:00,29.1,7.8,29.57,NNW,338,2.9,6.4,40,0.00,,,0.00,WUHU216HW,2013-02-01 20:32:00,
2013-02-01 15:37:00,29.1,7.8,29.57,WNW,293,0.6,6.4,40,0.00,,,0.00,WUHU216HW,2013-02-01 20:37:00,
2013-02-01 15:42:00,29.1,7.8,29.57,West,270,8.5,11.6,40,0.00,,,0.00,WUHU216HW,2013-02-01 20:42:00,
2013-02-01 15:47:00,28.9,7.6,29.58,West,270,12.0,12.0,40,0.00,,,0.00,WUHU216HW,2013-02-01 20:47:00,
2013-02-01 15:52:00,28.9,7.6,29.58,WNW,293,2.2,12.0,40,0.00,,,0.00,WUHU216HW,2013-02-01 20:52:00,
2013-02-01 15:57:00,28.9,7.6,29.58,WSW,248,4.9,6.9,40,0.00,,,0.00,WUHU216HW,2013-02-01 20:57:00,
2013-02-01 16:02:00,28.7,7.4,29.59,West,270,0.0,6.9,40,0.00,,,0.00,WUHU216HW,2013-02-01 21:02:00,
2013-02-01 16:07:00,28.7,7.4,29.59,West,270,4.4,4.4,40,0.00,,,0.00,WUHU216HW,2013-02-01 21:07:00,
2013-02-01 16:12:00,28.5,7.3,29.59,West,270,2.4,7.3,40,0.00,,,0.00,WUHU216HW,2013-02-01 21:12:00,
2013-02-01 16:17:00,28.5,7.3,29.60,WSW,248,0.0,9.6,40,0.00,,,0.00,WUHU216HW,2013-02-01 21:17:00,
2013-02-01 16:22:00,28.4,7.6,29.60,WNW,293,3.1,9.6,41,0.00,,,0.00,WUHU216HW,2013-02-01 21:22:00,
2013-02-01 16:27:00,28.2,7.4,29.61,South,180,0.0,6.0,41,0.00,,,0.00,WUHU216HW,2013-02-01 21:27:00,
2013-02-01 16:32:00,28.2,7.4,29.61,SW,225,4.4,6.7,41,0.00,,,0.00,WUHU216HW,2013-02-01 21:32:00,
2013-02-01 16:37:00,28.2,7.4,29.61,WSW,248,4.6,6.7,41,0.00,,,0.00,WUHU216HW,2013-02-01 21:37:00,
2013-02-01 16:42:00,28.0,7.8,29.62,WSW,248,3.1,4.6,42,0.00,,,0.00,WUHU216HW,2013-02-01 21:42:00,
2013-02-01 16:47:00,28.0,7.8,29.62,West,270,6.2,8.5,42,0.00,,,0.00,WUHU216HW,2013-02-01 21:47:00,
2013-02-01 16:52:00,27.6,7.5,29.62,SW,225,4.4,8.5,42,0.00,,,0.00,WUHU216HW,2013-02-01 21:52:00,
2013-02-01 16:57:00,27.6,7.5,29.63,West,270,2.6,6.4,42,0.00,,,0.00,WUHU216HW,2013-02-01 21:57:00,
2013-02-01 17:02:00,27.6,7.5,29.63,West,270,7.1,9.8,42,0.00,,,0.00,WUHU216HW,2013-02-01 22:02:00,
2013-02-01 17:08:00,27.6,7.9,29.64,WSW,248,4.4,9.8,43,0.00,,,0.00,WUHU216HW,2013-02-01 22:08:00,
2013-02-01 17:13:00,27.5,7.3,29.64,SW,225,3.1,10.0,42,0.00,,,0.00,WUHU216HW,2013-02-01 22:13:00,
2013-02-01 17:18:00,27.3,7.6,29.65,WSW,248,0.0,10.0,43,0.00,,,0.00,WUHU216HW,2013-02-01 22:18:00,
2013-02-01 17:23:00,27.3,8.1,29.65,WNW,293,9.8,9.8,44,0.00,,,0.00,WUHU216HW,2013-02-01 22:23:00,
2013-02-01 17:28:00,27.1,7.9,29.65,WNW,293,8.2,9.8,44,0.00,,,0.00,WUHU216HW,2013-02-01 22:28:00,
2013-02-01 17:33:00,27.1,7.9,29.66,NW,315,0.0,8.2,44,0.00,,,0.00,WUHU216HW,2013-02-01 22:33:00,
2013-02-01 17:38:00,27.1,7.9,29.66,NW,315,0.0,9.6,44,0.00,,,0.00,WUHU216HW,2013-02-01 22:38:00,
2013-02-01 17:43:00,27.1,7.9,29.67,West,270,6.4,9.6,44,0.00,,,0.00,WUHU216HW,2013-02-01 22:43:00,
2013-02-01 17:48:00,26.9,8.3,29.67,West,270,6.9,6.9,45,0.00,,,0.00,WUHU216HW,2013-02-01 22:48:00,
2013-02-01 17:53:00,26.9,8.3,29.67,West,270,6.2,6.9,45,0.00,,,0.00,WUHU216HW,2013-02-01 22:53:00,
2013-02-01 17:58:00,26.7,8.6,29.68,NW,315,6.9,6.9,46,0.00,,,0.00,WUHU216HW,2013-02-01 22:58:00,
2013-02-01 18:03:00,26.6,8.4,29.69,WNW,293,2.9,7.3,46,0.00,,,0.00,WUHU216HW,2013-02-01 23:03:00,
2013-02-01 18:08:00,26.6,8.4,29.69,West,270,0.0,7.3,46,0.00,,,0.00,WUHU216HW,2013-02-01 23:08:00,
2013-02-01 18:13:00,26.4,8.2,29.69,SW,225,6.9,12.3,46,0.00,,,0.00,WUHU216HW,2013-02-01 23:13:00,
2013-02-01 18:18:00,26.4,8.2,29.70,NW,315,7.3,12.3,46,0.00,,,0.00,WUHU216HW,2013-02-01 23:18:00,
2013-02-01 18:23:00,26.4,8.7,29.70,SW,225,4.2,7.3,47,0.00,,,0.00,WUHU216HW,2013-02-01 23:23:00,
2013-02-01 18:28:00,26.4,8.7,29.71,WSW,248,6.0,7.3,47,0.00,,,0.00,WUHU216HW,2013-02-01 23:28:00,
2013-02-01 18:33:00,26.2,8.6,29.71,NW,315,7.6,7.6,47,0.00,,,0.00,WUHU216HW,2013-02-01 23:33:00,
2013-02-01 18:38:00,26.2,8.6,29.72,West,270,6.7,7.6,47,0.00,,,0.00,WUHU216HW,2013-02-01 23:38:00,
2013-02-01 18:43:00,25.8,8.2,29.72,SW,225,2.2,7.8,47,0.00,,,0.00,WUHU216HW,2013-02-01 23:43:00,
2013-02-01 18:48:00,25.8,8.7,29.72,WSW,248,0.0,7.8,48,0.00,,,0.00,WUHU216HW,2013-02-01 23:48:00,
2013-02-01 18:53:00,25.7,8.6,29.73,WNW,293,0.0,7.8,48,0.00,,,0.00,WUHU216HW,2013-02-01 23:53:00,
2013-02-01 18:58:00,25.5,8.4,29.72,West,270,3.3,13.1,48,0.00,,,0.00,WUHU216HW,2013-02-01 23:58:00,
2013-02-01 19:03:00,25.3,8.2,29.74,NW,315,0.0,13.1,48,0.00,,,0.00,WUHU216HW,2013-02-02 00:03:00,
2013-02-01 19:08:00,25.3,8.2,29.74,NW,315,0.0,3.3,48,0.00,,,0.00,WUHU216HW,2013-02-02 00:08:00,
2013-02-01 19:13:00,25.3,8.2,29.73,WNW,293,5.1,5.1,48,0.00,,,0.00,WUHU216HW,2013-02-02 00:13:00,
2013-02-01 19:18:00,25.1,8.1,29.74,WSW,248,2.2,5.1,48,0.00,,,0.00,WUHU216HW,2013-02-02 00:18:00,
2013-02-01 19:23:00,24.9,7.9,29.74,NW,315,4.2,5.1,48,0.00,,,0.00,WUHU216HW,2013-02-02 00:23:00,
2013-02-01 19:28:00,24.6,7.6,29.75,WNW,293,7.1,7.8,48,0.00,,,0.00,WUHU216HW,2013-02-02 00:28:00,
2013-02-01 19:33:00,24.6,7.6,29.75,West,270,2.4,7.8,48,0.00,,,0.00,WUHU216HW,2013-02-02 00:33:00,
2013-02-01 19:38:00,24.4,8.1,29.75,West,270,2.6,7.1,49,0.00,,,0.00,WUHU216HW,2013-02-02 00:38:00,
2013-02-01 19:44:00,24.4,7.9,29.76,West,270,4.6,6.2,49,0.00,,,0.00,WUHU216HW,2013-02-02 00:44:00,
2013-02-01 19:49:00,24.0,8.1,29.76,SSW,203,1.1,6.2,50,0.00,,,0.00,WUHU216HW,2013-02-02 00:49:00,
2013-02-01 19:54:00,24.0,8.1,29.76,West,270,2.9,5.1,50,0.00,,,0.00,WUHU216HW,2013-02-02 00:54:00,
2013-02-01 19:59:00,23.9,7.9,29.76,WNW,293,1.7,3.5,50,0.00,,,0.00,WUHU216HW,2013-02-02 00:59:00,
2013-02-01 20:04:00,23.9,7.9,29.77,WNW,293,0.0,3.5,50,0.00,,,0.00,WUHU216HW,2013-02-02 01:04:00,
2013-02-01 20:09:00,23.7,7.8,29.77,WNW,293,2.0,4.2,50,0.00,,,0.00,WUHU216HW,2013-02-02 01:09:00,
2013-02-01 20:14:00,23.7,7.8,29.77,West,270,2.4,4.2,50,0.00,,,0.00,WUHU216HW,2013-02-02 01:14:00,
2013-02-01 20:19:00,23.5,7.6,29.77,WSW,248,0.0,2.9,50,0.00,,,0.00,WUHU216HW,2013-02-02 01:19:00,
2013-02-01 20:24:00,23.5,7.6,29.78,WNW,293,0.0,2.9,50,0.00,,,0.00,WUHU216HW,2013-02-02 01:24:00,
2013-02-01 20:29:00,23.5,7.1,29.78,West,270,0.0,1.5,49,0.00,,,0.00,WUHU216HW,2013-02-02 01:29:00,
2013-02-01 20:34:00,23.3,6.9,29.78,West,270,7.8,7.8,49,0.00,,,0.00,WUHU216HW,2013-02-02 01:34:00,
2013-02-01 20:39:00,23.3,6.9,29.78,WNW,293,0.0,7.8,49,0.00,,,0.00,WUHU216HW,2013-02-02 01:39:00,
2013-02-01 20:44:00,23.1,6.8,29.78,WSW,248,0.8,8.5,49,0.00,,,0.00,WUHU216HW,2013-02-02 01:44:00,
2013-02-01 20:49:00,23.1,6.8,29.79,West,270,4.9,8.5,49,0.00,,,0.00,WUHU216HW,2013-02-02 01:49:00,
2013-02-01 20:54:00,23.0,6.6,29.79,West,270,4.2,4.9,49,0.00,,,0.00,WUHU216HW,2013-02-02 01:54:00,
2013-02-01 20:59:00,22.8,6.4,29.80,SW,225,8.0,8.0,49,0.00,,,0.00,WUHU216HW,2013-02-02 01:59:00,
2013-02-01 21:04:00,22.8,6.4,29.80,West,270,2.2,8.0,49,0.00,,,0.00,WUHU216HW,2013-02-02 02:04:00,
2013-02-01 21:09:00,22.8,6.0,29.80,WNW,293,2.6,7.8,48,0.00,,,0.00,WUHU216HW,2013-02-02 02:09:00,
2013-02-01 21:14:00,22.8,6.0,29.80,WNW,293,2.6,7.8,48,0.00,,,0.00,WUHU216HW,2013-02-02 02:14:00,
2013-02-01 21:19:00,22.6,5.8,29.80,WNW,293,6.2,6.2,48,0.00,,,0.00,WUHU216HW,2013-02-02 02:19:00,
2013-02-01 21:24:00,22.6,5.8,29.80,NW,315,2.0,6.2,48,0.00,,,0.00,WUHU216HW,2013-02-02 02:24:00,
2013-02-01 21:29:00,22.4,5.6,29.80,North,0,3.3,6.2,48,0.00,,,0.00,WUHU216HW,2013-02-02 02:29:00,
2013-02-01 21:34:00,22.2,5.0,29.81,NW,315,5.3,6.2,47,0.00,,,0.00,WUHU216HW,2013-02-02 02:34:00,
2013-02-01 21:39:00,22.2,5.0,29.80,WNW,293,10.5,10.5,47,0.00,,,0.00,WUHU216HW,2013-02-02 02:39:00,
2013-02-01 21:44:00,22.2,5.0,29.81,West,270,1.5,10.5,47,0.00,,,0.00,WUHU216HW,2013-02-02 02:44:00,
2013-02-01 21:49:00,22.1,4.8,29.81,WNW,293,0.0,10.5,47,0.00,,,0.00,WUHU216HW,2013-02-02 02:49:00,
2013-02-01 21:55:00,22.1,4.8,29.81,WNW,293,2.2,8.0,47,0.00,,,0.00,WUHU216HW,2013-02-02 02:55:00,
2013-02-01 22:00:00,21.9,4.6,29.81,SW,225,5.5,7.3,47,0.00,,,0.00,WUHU216HW,2013-02-02 03:00:00,
2013-02-01 22:05:00,21.9,4.6,29.82,West,270,6.2,8.5,47,0.00,,,0.00,WUHU216HW,2013-02-02 03:05:00,
2013-02-01 22:10:00,21.9,4.6,29.82,West,270,9.1,9.1,47,0.00,,,0.00,WUHU216HW,2013-02-02 03:10:00,
2013-02-01 22:15:00,21.9,4.6,29.82,West,270,6.4,9.1,47,0.00,,,0.00,WUHU216HW,2013-02-02 03:15:00,
2013-02-01 22:20:00,21.7,4.4,29.82,NNW,338,3.3,6.4,47,0.00,,,0.00,WUHU216HW,2013-02-02 03:20:00,
2013-02-01 22:25:00,21.7,4.4,29.82,West,270,4.6,10.0,47,0.00,,,0.00,WUHU216HW,2013-02-02 03:25:00,
2013-02-01 22:30:00,21.5,4.2,29.82,West,270,0.0,10.0,47,0.00,,,0.00,WUHU216HW,2013-02-02 03:30:00,
2013-02-01 22:35:00,21.5,4.2,29.82,West,270,0.6,4.6,47,0.00,,,0.00,WUHU216HW,2013-02-02 03:35:00,
2013-02-01 22:40:00,21.3,4.1,29.82,NW,315,3.8,3.8,47,0.00,,,0.00,WUHU216HW,2013-02-02 03:40:00,
2013-02-01 22:45:00,21.3,4.1,29.82,NW,315,0.0,3.8,47,0.00,,,0.00,WUHU216HW,2013-02-02 03:45:00,
2013-02-01 22:50:00,21.3,4.1,29.83,West,270,0.0,3.8,47,0.00,,,0.00,WUHU216HW,2013-02-02 03:50:00,
2013-02-01 22:55:00,21.0,4.2,29.83,West,270,1.1,1.1,48,0.00,,,0.00,WUHU216HW,2013-02-02 03:55:00,
2013-02-01 23:00:00,21.0,4.2,29.83,West,270,0.0,1.5,48,0.00,,,0.00,WUHU216HW,2013-02-02 04:00:00,
2013-02-01 23:05:00,21.0,4.2,29.83,West,270,0.0,1.5,48,0.00,,,0.00,WUHU216HW,2013-02-02 04:05:00,
2013-02-01 23:11:00,21.0,4.1,29.83,West,270,3.3,3.3,48,0.00,,,0.00,WUHU216HW,2013-02-02 04:11:00,
2013-02-01 23:16:00,20.8,4.1,29.83,WNW,293,0.0,3.3,48,0.00,,,0.00,WUHU216HW,2013-02-02 04:16:00,
2013-02-01 23:21:00,20.8,4.1,29.84,WNW,293,0.0,3.3,48,0.00,,,0.00,WUHU216HW,2013-02-02 04:21:00,
2013-02-01 23:26:00,20.4,4.2,29.83,WNW,293,0.0,0.0,49,0.00,,,0.00,WUHU216HW,2013-02-02 04:26:00,
2013-02-01 23:31:00,20.4,4.2,29.83,WNW,293,0.0,0.0,49,0.00,,,0.00,WUHU216HW,2013-02-02 04:31:00,
2013-02-01 23:36:00,20.3,4.5,29.84,WNW,293,1.7,3.3,50,0.00,,,0.00,WUHU216HW,2013-02-02 04:36:00,
2013-02-01 23:41:00,20.3,4.5,29.83,West,270,3.5,3.5,50,0.00,,,0.00,WUHU216HW,2013-02-02 04:41:00,
2013-02-01 23:46:00,20.3,4.5,29.84,WNW,293,0.0,3.5,50,0.00,,,0.00,WUHU216HW,2013-02-02 04:46:00,
2013-02-01 23:51:00,20.4,5.1,29.83,WNW,293,0.0,3.5,51,0.00,,,0.00,WUHU216HW,2013-02-02 04:51:00,
2013-02-01 23:56:00,20.4,5.1,29.84,WNW,293,0.0,3.3,51,0.00,,,0.00,WUHU216HW,2013-02-02 04:56:00,